Satellite-Ground Cal/Val Site Overpasses Predictions

Prediction of Satellite NPP Overpassing Cal/Val Site: Antarctic Dome C

Ground Cal/Val Site Location: Latitude: -75.10, Longitude: 123.35; Satellite-Ground Site NADIR distance within 100 km.

Table of predicted overpasses for the next 14.0 days since TLE Epoch: 4/24/2020
Interval Starting Time Ending Time Minimum Distance Time Minimum Distance (km)
1 04/27/2020 14:54:37 04/27/2020 14:55:05 04/27/2020 14:54:51 21.77
2 04/28/2020 14:35:54 04/28/2020 14:36:09 04/28/2020 14:36:01 85.23
3 04/29/2020 07:37:27 04/29/2020 07:37:54 04/29/2020 07:37:40 35.41
4 04/30/2020 07:18:41 04/30/2020 07:19:00 04/30/2020 07:18:50 74.71
5 05/02/2020 15:00:55 05/02/2020 15:01:19 05/02/2020 15:01:07 58.78
6 05/03/2020 14:42:05 05/03/2020 14:42:30 05/03/2020 14:42:18 50.40
7 05/04/2020 07:43:46 05/04/2020 07:44:07 05/04/2020 07:43:57 70.49
8 05/05/2020 07:24:53 05/05/2020 07:25:20 05/05/2020 07:25:07 37.45
9 05/07/2020 15:07:20 05/07/2020 15:07:27 05/07/2020 15:07:24 96.47


NCC Satellite Cal/Val Overpasses Prediction Service
